TimeCDT,TemperatureF,Dew PointF,Humidity,Sea Level PressureIn,VisibilityMPH,Wind Direction,Wind SpeedMPH,Gust SpeedMPH,PrecipitationIn,Events,Conditions,WindDirDegrees,DateUTC
12:53 AM,64.0,-9999,N/A,29.77,10.0,SSE,16.1,-,0.10,,Scattered Clouds,150,2013-05-22 05:53:00
1:53 AM,64.0,-9999,N/A,29.78,10.0,NE,5.8,-,0.08,,Clear,40,2013-05-22 06:53:00
2:53 AM,64.0,-9999,N/A,29.82,10.0,Calm,Calm,-,0.08,,Scattered Clouds,0,2013-05-22 07:53:00
3:53 AM,63.0,-9999,N/A,29.83,10.0,Calm,Calm,-,0.07,,Partly Cloudy,0,2013-05-22 08:53:00
4:53 AM,63.0,63.0,100,29.83,10.0,South,5.8,-,0.06,,Overcast,180,2013-05-22 09:53:00
5:53 AM,64.0,62.1,93,29.83,10.0,SW,4.6,-,0.05,,Overcast,220,2013-05-22 10:53:00
6:53 AM,64.9,63.0,93,29.84,10.0,South,4.6,-,0.05,,Overcast,180,2013-05-22 11:53:00
7:53 AM,64.9,63.0,93,29.83,10.0,South,8.1,-,0.05,,Overcast,190,2013-05-22 12:53:00
8:53 AM,68.0,64.0,87,29.85,10.0,SSW,6.9,-,0.03,,Mostly Cloudy,200,2013-05-22 13:53:00
9:04 AM,68.0,64.4,88,29.86,10.0,SSW,12.7,-,0.01,,Scattered Clouds,210,2013-05-22 14:04:00
9:53 AM,69.1,64.0,84,29.86,10.0,SSW,9.2,-,0.03,,Overcast,210,2013-05-22 14:53:00
10:53 AM,72.0,64.0,76,29.87,10.0,SSW,12.7,-,0.01,,Mostly Cloudy,210,2013-05-22 15:53:00
11:53 AM,73.0,64.9,76,29.87,10.0,Variable,6.9,-,N/A,,Overcast,0,2013-05-22 16:53:00
12:23 PM,75.2,66.2,73,29.88,10.0,WSW,6.9,-,N/A,,Mostly Cloudy,240,2013-05-22 17:23:00
12:39 PM,73.4,64.4,73,29.88,10.0,Variable,5.8,-,N/A,,Mostly Cloudy,0,2013-05-22 17:39:00
12:48 PM,75.2,64.4,69,29.88,10.0,West,8.1,-,N/A,,Mostly Cloudy,260,2013-05-22 17:48:00
12:53 PM,75.0,64.0,69,29.87,10.0,WSW,8.1,-,N/A,,Scattered Clouds,240,2013-05-22 17:53:00
1:53 PM,77.0,64.0,64,29.86,10.0,West,8.1,-,N/A,,Mostly Cloudy,270,2013-05-22 18:53:00
2:13 PM,77.0,64.4,65,29.87,10.0,Variable,4.6,-,N/A,,Mostly Cloudy,0,2013-05-22 19:13:00
2:53 PM,78.1,64.0,62,29.85,10.0,WSW,8.1,16.1,N/A,,Scattered Clouds,240,2013-05-22 19:53:00
3:53 PM,79.0,63.0,58,29.84,10.0,Variable,5.8,-,N/A,,Partly Cloudy,0,2013-05-22 20:53:00
4:35 PM,78.8,62.6,57,29.84,10.0,West,8.1,-,N/A,,Scattered Clouds,270,2013-05-22 21:35:00
4:53 PM,79.0,62.1,56,29.83,10.0,SW,6.9,-,N/A,,Partly Cloudy,230,2013-05-22 21:53:00
5:53 PM,78.1,60.1,54,29.83,10.0,WSW,5.8,-,N/A,,Clear,250,2013-05-22 22:53:00
6:53 PM,77.0,61.0,58,29.84,10.0,WSW,6.9,-,N/A,,Clear,240,2013-05-22 23:53:00
7:53 PM,73.9,63.0,68,29.85,10.0,SW,3.5,-,N/A,,Clear,230,2013-05-23 00:53:00
8:53 PM,70.0,64.0,81,29.86,10.0,Calm,Calm,-,N/A,,Clear,0,2013-05-23 01:53:00
9:53 PM,69.1,64.0,84,29.88,10.0,South,4.6,-,N/A,,Clear,190,2013-05-23 02:53:00
10:53 PM,66.9,64.0,90,29.89,10.0,SSW,4.6,-,N/A,,Clear,200,2013-05-23 03:53:00
11:53 PM,66.9,63.0,87,29.89,10.0,SSW,4.6,-,N/A,,Clear,200,2013-05-23 04:53:00